Location: Sobotiste
(48.7170°N, 17.4000°E)
Time: 16:03:38
(UTC+02:00)

Tiangong 1 - Visible Passes

Search period start: 24 June 2017 00:00
Search period end: 04 July 2017 00:00
Orbit: 321 x 345 km, 42.8° (Epoch: 23 June)

Date Brightness Start Highest point End Pass type
(mag) Time Alt. Az. Time Alt. Az. Time Alt. Az.
24 Jun 2.0 22:29:13 10° SW 22:31:31 23° S 22:32:08 21° SSE visible
25 Jun 2.1 22:48:25 10° WSW 22:50:35 22° S 22:50:35 22° S visible
26 Jun 2.9 23:07:49 10° WSW 23:08:52 15° SW 23:08:52 15° SW visible
27 Jun 2.2 21:51:32 10° WSW 21:53:50 23° S 21:55:55 11° SE visible
28 Jun 2.5 22:10:50 10° WSW 22:12:52 18° SSW 22:14:01 15° SSE visible
29 Jun 3.1 22:30:37 10° SW 22:31:47 12° SSW 22:32:04 12° SSW visible
